Weather History for New Ulm, MN

Change the Weather History Date:

Thursday, October 18, 2012

  Actual Average Record
Temperature  
Mean Temperature 46 °F -  
Max Temperature 50 °F 57 °F 81 °F (1956)
Min Temperature 41 °F 36 °F 3 °F (1997)
Degree Days  
Heating Degree Days 20    
Moisture  
Dew Point 43 °F    
Average Humidity 88    
Maximum Humidity 93    
Minimum Humidity 76    
Precipitation  
Precipitation 0.01 in - - ()
Sea Level Pressure  
Sea Level Pressure 29.27 in    
Wind  
Wind Speed 14 mph (NW)    
Max Wind Speed 20 mph    
Max Gust Speed 28 mph    
Visibility 6 miles    
Events Rain    
Averages and records for this station are not official NWS values.
T = Trace of Precipitation, MM = Missing Value Source: NWS Daily Summary

Daily Weather History Graph

Daily Weather History Graph

Search for Another Location

Airport:

Trip Planner

Search our weather history database for the weather conditions in past years. The results will help you decide how hot, cold, wet, or windy it might be!

Date:

Astronomy

Oct. 18, 2012 Rise Set
Actual Time 7:37 AM CDT 6:27 PM CDT
Civil Twilight 7:08 AM CDT 6:57 PM CDT
Nautical Twilight 6:34 AM CDT 7:30 PM CDT
Astronomical Twilight 6:00 AM CDT 8:04 PM CDT
Moon 11:28 AM CDT (10/18) 8:54 PM CDT (10/18)
Length of Visible Light 11h 49m
Length of Day
10h 50m
Waxing Crescent, 14% of the Moon is Illuminated
Oct 18
Waxing Crescent
Oct 21
First Quarter
Oct 29
Full
Nov 6
Last Quarter
Nov 13
New

Hourly Weather History & Observations

Time (CDT) Temp. Windchill Dew Point Humidity Pressure Visibility Wind Dir Wind Speed Gust Speed Precip Events Conditions
12:13 AM 44.6 °F 36.6 °F 41.0 °F 87% 29.31 in 10.0 mi West 19.6 mph 25.3 mph N/A   Scattered Clouds
12:33 AM 44.6 °F 36.9 °F 41.0 °F 87% 29.30 in 10.0 mi West 18.4 mph 23.0 mph N/A   Scattered Clouds
12:53 AM 44.6 °F 37.4 °F 41.0 °F 87% 29.30 in 10.0 mi West 16.1 mph 20.7 mph N/A   Clear
1:12 AM 44.6 °F 37.4 °F 41.0 °F 87% 29.29 in 10.0 mi West 16.1 mph 23.0 mph N/A   Clear
1:33 AM 44.6 °F 37.4 °F 41.0 °F 87% 29.28 in 10.0 mi West 16.1 mph 23.0 mph N/A   Clear
1:53 AM 44.6 °F 37.4 °F 39.2 °F 81% 29.28 in 10.0 mi West 16.1 mph - N/A   Clear
2:12 AM 44.6 °F 37.4 °F 39.2 °F 81% 29.28 in 10.0 mi West 16.1 mph - N/A   Clear
2:33 AM 44.6 °F 37.2 °F 39.2 °F 81% 29.27 in 10.0 mi WNW 17.3 mph 26.5 mph N/A   Clear
2:53 AM 44.6 °F 37.4 °F 39.2 °F 81% 29.27 in 10.0 mi West 16.1 mph 27.6 mph N/A   Clear
3:13 AM 44.6 °F 37.8 °F 39.2 °F 81% 29.27 in 10.0 mi West 15.0 mph - N/A   Clear
3:33 AM 44.6 °F 37.4 °F 39.2 °F 81% 29.26 in 10.0 mi West 16.1 mph - N/A   Clear
3:53 AM 44.6 °F 37.8 °F 39.2 °F 81% 29.26 in 10.0 mi West 15.0 mph - N/A   Clear
4:13 AM 44.6 °F 37.4 °F 39.2 °F 81% 29.25 in 10.0 mi West 16.1 mph - N/A   Clear
4:33 AM 42.8 °F 34.3 °F 39.2 °F 87% 29.24 in 10.0 mi West 19.6 mph 26.5 mph N/A   Scattered Clouds
4:53 AM 42.8 °F 34.5 °F 39.2 °F 87% 29.24 in 5.0 mi West 18.4 mph - N/A   Clear
5:13 AM 42.8 °F 34.8 °F 39.2 °F 87% 29.23 in 4.0 mi West 17.3 mph 24.2 mph N/A   Clear
5:33 AM 42.8 °F 34.5 °F 39.2 °F 87% 29.22 in 5.0 mi West 18.4 mph 23.0 mph N/A   Clear
5:53 AM 42.8 °F 34.5 °F 39.2 °F 87% 29.22 in 10.0 mi West 18.4 mph 21.9 mph N/A   Clear
6:13 AM 42.8 °F 35.4 °F 39.2 °F 87% 29.22 in 7.0 mi West 15.0 mph - N/A   Clear
6:33 AM 42.8 °F 34.5 °F 39.2 °F 87% 29.21 in 4.0 mi West 18.4 mph - N/A   Clear
6:53 AM 41.0 °F 32.5 °F 39.2 °F 93% 29.21 in 5.0 mi West 17.3 mph 25.3 mph N/A   Clear
7:13 AM 41.0 °F 33.1 °F 39.2 °F 93% 29.20 in 3.0 mi West 15.0 mph - N/A   Mist
7:33 AM 41.0 °F 34.3 °F 39.2 °F 93% 29.20 in 2.5 mi West 11.5 mph - N/A   Mist
7:53 AM 41.0 °F 33.9 °F 39.2 °F 93% 29.19 in 3.0 mi West 12.7 mph - N/A   Mist
8:13 AM 42.8 °F 37.0 °F 39.2 °F 87% 29.19 in 3.0 mi West 10.4 mph - N/A   Mist
8:32 AM 42.8 °F 36.6 °F 39.2 °F 87% 29.19 in 1.8 mi West 11.5 mph - 0.01 in   Mist
8:53 AM 42.8 °F 36.2 °F 41.0 °F 93% 29.19 in 1.5 mi West 12.7 mph - 0.01 in   Mist
9:13 AM 44.6 °F 39.2 °F 41.0 °F 87% 29.19 in 1.5 mi WNW 10.4 mph - N/A   Mist
9:32 AM 44.6 °F 38.8 °F 42.8 °F 93% 29.18 in 1.5 mi WNW 11.5 mph - N/A   Mist
9:53 AM 44.6 °F 38.4 °F 42.8 °F 93% 29.18 in 1.2 mi WNW 12.7 mph 17.3 mph N/A   Mist
10:13 AM 44.6 °F 38.1 °F 42.8 °F 93% 29.18 in 1.2 mi WNW 13.8 mph 20.7 mph N/A   Mist
10:32 AM 46.4 °F 40.4 °F 42.8 °F 87% 29.17 in 1.5 mi WNW 13.8 mph - N/A   Mist
10:53 AM 46.4 °F 41.1 °F 44.6 °F 93% 29.18 in 2.0 mi WNW 11.5 mph - N/A   Mist
11:13 AM 46.4 °F 41.1 °F 44.6 °F 93% 29.17 in 3.0 mi WNW 11.5 mph - N/A   Clear
11:32 AM 46.4 °F 41.1 °F 44.6 °F 93% 29.18 in 4.0 mi NW 11.5 mph - N/A   Clear
11:53 AM 46.4 °F 41.5 °F 44.6 °F 93% 29.18 in 5.0 mi WNW 10.4 mph - N/A   Clear
12:13 PM 46.4 °F 41.5 °F 44.6 °F 93% 29.19 in 10.0 mi WNW 10.4 mph - N/A   Clear
12:32 PM 48.2 °F - 46.4 °F 93% 29.20 in 10.0 mi NW 11.5 mph - N/A   Clear
12:53 PM 48.2 °F - 46.4 °F 93% 29.20 in 3.0 mi NW 11.5 mph - N/A Rain Light Rain
1:13 PM 48.2 °F - 44.6 °F 87% 29.22 in 4.0 mi NNW 6.9 mph - N/A Rain Light Rain
1:33 PM 48.2 °F - 46.4 °F 93% 29.22 in 10.0 mi NNW 6.9 mph - N/A   Scattered Clouds
1:53 PM 48.2 °F - 44.6 °F 87% 29.23 in 10.0 mi North 6.9 mph - N/A   Clear
2:13 PM 48.2 °F - 44.6 °F 87% 29.24 in 10.0 mi NNE 9.2 mph - N/A   Clear
2:33 PM 48.2 °F - 44.6 °F 87% 29.24 in 10.0 mi NNE 10.4 mph - N/A   Clear
2:53 PM 48.2 °F - 42.8 °F 82% 29.25 in 10.0 mi North 5.8 mph - N/A   Clear
3:12 PM 50.0 °F - 42.8 °F 76% 29.26 in 10.0 mi North 11.5 mph 16.1 mph N/A   Clear
3:33 PM 48.2 °F - 42.8 °F 82% 29.28 in 10.0 mi NNW 12.7 mph - N/A   Clear
3:53 PM 48.2 °F - 42.8 °F 82% 29.29 in 10.0 mi North 9.2 mph 18.4 mph N/A   Clear
4:12 PM 48.2 °F - 42.8 °F 82% 29.30 in 10.0 mi North 12.7 mph 19.6 mph N/A Rain Light Rain
4:33 PM 48.2 °F - 44.6 °F 87% 29.32 in 7.0 mi NNW 12.7 mph - N/A   Drizzle
4:53 PM 48.2 °F - 44.6 °F 87% 29.33 in 10.0 mi NNW 13.8 mph 18.4 mph N/A Rain Light Rain
5:12 PM 48.2 °F - 44.6 °F 87% 29.33 in 10.0 mi NNW 10.4 mph - N/A   Light Drizzle
5:33 PM 48.2 °F - 44.6 °F 87% 29.33 in 10.0 mi NW 11.5 mph - N/A   Clear
5:53 PM 48.2 °F - 44.6 °F 87% 29.34 in 10.0 mi NW 9.2 mph - N/A   Clear
6:12 PM 48.2 °F - 44.6 °F 87% 29.33 in 10.0 mi WNW 6.9 mph - N/A   Clear
6:33 PM 48.2 °F - 44.6 °F 87% 29.34 in 10.0 mi WNW 6.9 mph - N/A Rain Light Rain
6:53 PM 48.2 °F - 44.6 °F 87% 29.34 in 4.0 mi West 8.1 mph - N/A   Heavy Drizzle
7:12 PM 46.4 °F 44.3 °F 44.6 °F 93% 29.34 in 2.5 mi West 4.6 mph - N/A Rain Rain
7:33 PM 48.2 °F - 46.4 °F 93% 29.34 in 3.0 mi WNW 12.7 mph 17.3 mph N/A   Light Drizzle
7:53 PM 46.4 °F 41.1 °F 44.6 °F 93% 29.35 in 4.0 mi NW 11.5 mph - N/A   Scattered Clouds
8:13 PM 46.4 °F 40.1 °F 44.6 °F 93% 29.35 in 3.0 mi NW 15.0 mph 18.4 mph N/A   Scattered Clouds
8:33 PM 46.4 °F 40.7 °F 44.6 °F 93% 29.35 in 5.0 mi NNW 12.7 mph 18.4 mph N/A   Light Drizzle
8:53 PM 46.4 °F 41.9 °F 44.6 °F 93% 29.35 in 4.0 mi NNW 9.2 mph 13.8 mph N/A   Mostly Cloudy
9:13 PM 46.4 °F 41.1 °F 44.6 °F 93% 29.35 in 4.0 mi NNW 11.5 mph - N/A   Drizzle
9:33 PM 46.4 °F 41.5 °F 44.6 °F 93% 29.36 in 2.5 mi NNW 10.4 mph - N/A   Scattered Clouds
9:53 PM 46.4 °F 40.7 °F 44.6 °F 93% 29.37 in 2.0 mi NNW 12.7 mph 17.3 mph N/A Rain Rain
10:13 PM 46.4 °F 41.1 °F 44.6 °F 93% 29.38 in 1.5 mi NNW 11.5 mph - N/A   Unknown
10:33 PM 46.4 °F 41.5 °F 44.6 °F 93% 29.38 in 1.5 mi NNW 10.4 mph 16.1 mph N/A   Unknown
10:53 PM 46.4 °F 41.5 °F 44.6 °F 93% 29.37 in 2.0 mi NW 10.4 mph - N/A   Unknown
11:13 PM 46.4 °F 41.5 °F 44.6 °F 93% 29.38 in 5.0 mi NW 10.4 mph - N/A   Scattered Clouds
11:33 PM 46.4 °F 41.1 °F 44.6 °F 93% 29.39 in 7.0 mi NNW 11.5 mph - N/A   Scattered Clouds
11:53 PM 46.4 °F 41.5 °F 44.6 °F 93% 29.39 in 10.0 mi NW 10.4 mph - N/A Rain Light Rain